Date,TemperatureHighF,TemperatureAvgF,TemperatureLowF,DewpointHighF,DewpointAvgF,DewpointLowF,HumidityHigh,HumidityAvg,HumidityLow,PressureMaxIn,PressureMinIn,WindSpeedMaxMPH,WindSpeedAvgMPH,GustSpeedMaxMPH,PrecipitationSumIn
2013-1-1,40,31,27,36,29,26,97,94,83,30.48,30.33,3,0,5,0.00
2013-1-2,50,32,24,38,26,23,97,82,44,30.34,30.17,3,0,7,0.00
2013-1-3,47,34,21,32,25,19,94,73,41,30.18,30.07,4,1,14,0.15
2013-1-4,48,39,34,44,37,32,100,92,85,30.28,30.14,3,1,13,0.17
2013-1-5,42,40,37,37,36,34,96,86,74,30.17,30.08,3,1,9,0.07
2013-1-6,45,41,38,40,38,36,93,89,81,30.15,29.96,5,2,14,0.23
2013-1-7,49,44,39,47,43,37,96,94,91,30.12,29.79,5,1,14,0.88
2013-1-8,50,45,40,48,43,38,96,93,89,30.13,29.70,9,2,24,0.64
2013-1-9,50,39,33,48,37,32,96,94,90,29.92,29.64,8,2,24,1.67
2013-1-10,36,32,26,35,31,25,96,96,95,30.08,29.91,2,0,6,0.13
2013-1-11,34,29,26,31,28,25,96,95,88,30.30,30.08,2,0,5,0.01
2013-1-12,39,27,21,32,24,19,96,91,73,30.42,30.29,3,0,7,0.01
2013-1-13,37,26,17,29,22,15,96,88,69,30.47,30.42,2,0,5,0.01
2013-1-14,33,31,29,32,29,27,96,94,93,30.54,30.45,1,0,4,0.01
2013-1-15,46,34,26,40,32,25,97,91,72,30.68,30.54,2,0,5,0.01
2013-1-16,41,30,25,37,28,24,96,93,81,30.66,30.50,2,0,4,0.01
2013-1-17,38,30,25,37,29,24,96,95,91,30.50,30.27,2,0,4,0.00
2013-1-18,32,29,25,31,28,24,96,96,95,30.33,30.24,2,0,5,0.01
2013-1-19,32,30,27,31,29,26,96,96,96,30.36,30.32,2,0,5,0.01
2013-1-20,33,30,28,32,29,27,97,96,96,30.37,30.24,1,0,4,0.01
2013-1-21,31,29,25,30,28,24,97,96,95,30.24,30.11,3,0,5,0.01
2013-1-22,38,30,22,36,28,21,97,95,92,30.12,29.88,1,0,5,0.00
2013-1-23,40,37,33,39,36,31,97,94,83,30.10,29.82,4,0,11,0.35
2013-1-24,45,41,37,40,38,36,96,92,81,30.18,30.02,5,1,10,0.18
2013-1-25,50,43,34,45,41,32,96,92,80,30.03,29.90,4,1,10,0.20
2013-1-26,41,39,35,40,37,34,97,95,92,29.90,29.85,4,1,9,0.46
2013-1-27,38,38,38,37,37,37,96,95,95,29.97,29.95,2,2,7,0.18
2013-1-28,40,38,37,39,38,36,96,96,95,30.05,29.97,3,0,8,0.74
2013-1-29,44,42,40,43,41,39,97,96,95,30.30,30.05,4,1,9,1.11
2013-1-30,48,45,42,47,44,41,97,96,94,30.35,30.30,2,0,9,0.44
2013-1-31,48,46,45,45,44,43,97,94,88,30.34,30.27,4,1,14,0.18
2013-2-1,54,44,34,49,42,32,97,93,78,30.38,30.30,3,0,8,0.07
2013-2-2,41,36,31,40,35,30,97,96,95,30.36,30.23,2,0,6,0.01
2013-2-3,47,41,36,44,40,35,97,95,86,30.29,30.18,4,1,9,0.10
2013-2-4,50,45,43,44,42,41,95,89,77,30.19,29.85,5,1,10,0.09
2013-2-5,52,46,43,44,42,40,94,87,69,29.90,29.81,7,3,19,0.10
2013-2-6,48,44,43,41,40,38,90,83,69,30.01,29.77,7,2,17,0.08
2013-2-7,49,41,30,40,36,28,95,81,63,30.16,29.77,6,2,18,0.22
2013-2-8,44,35,28,39,33,27,96,91,78,30.28,30.15,2,0,5,0.05
2013-2-9,43,39,37,41,38,35,96,95,90,30.31,30.23,1,0,3,0.08
2013-2-10,47,38,32,41,36,31,97,92,72,30.35,30.30,2,0,6,0.01
2013-2-11,44,40,37,41,38,35,100,94,88,30.34,30.29,1,0,6,0.04
2013-2-12,48,44,38,45,42,37,97,93,86,30.37,30.25,7,2,13,0.02
2013-2-13,48,44,40,45,42,38,96,91,82,30.46,30.26,3,1,11,0.09
2013-2-14,48,44,40,44,42,38,96,91,82,30.53,30.46,3,0,8,0.08
2013-2-15,57,44,34,47,40,32,97,88,66,30.52,30.15,5,1,9,0.01
2013-2-16,45,41,33,44,39,32,97,94,85,30.18,30.09,7,1,16,0.41
2013-2-17,45,40,33,39,37,32,95,90,79,30.22,30.09,3,0,10,0.13
2013-2-18,45,38,31,38,34,30,97,88,73,30.09,29.74,4,0,9,0.00
2013-2-19,54,40,29,40,34,27,94,82,56,29.98,29.72,7,1,13,0.00
2013-2-20,44,37,30,39,34,28,96,91,78,30.02,29.97,4,0,10,0.03
2013-2-21,42,40,35,39,37,34,96,92,85,30.04,29.98,6,2,13,0.05
2013-2-22,46,41,36,41,38,34,95,89,78,30.02,29.64,8,4,28,0.27
2013-2-23,47,40,36,40,36,34,94,86,70,30.35,29.86,4,1,11,0.30
2013-2-24,46,42,39,38,37,35,88,80,71,30.35,29.92,7,3,16,0.01
2013-2-25,52,43,38,42,37,32,92,78,53,30.28,29.86,9,2,19,0.08
2013-2-26,47,40,31,37,33,29,100,77,57,30.33,30.17,5,1,13,0.03
2013-2-27,51,43,40,43,39,34,95,85,57,30.28,30.18,6,1,13,0.38
2013-2-28,51,44,40,49,42,38,96,94,91,30.28,30.16,8,2,18,0.67
2013-3-1,56,53,51,50,49,47,94,85,77,30.32,30.24,10,5,22,0.04
2013-3-2,56,48,36,47,43,33,95,83,71,30.24,30.03,9,3,21,0.43
2013-3-3,49,38,29,43,35,27,97,88,63,30.29,30.17,6,1,12,0.23
2013-3-4,54,40,25,40,29,24,96,70,37,30.28,29.90,5,1,14,0.01
2013-3-5,54,46,41,39,32,24,88,60,43,29.92,29.70,5,1,12,0.00
2013-3-6,43,40,35,41,38,33,95,92,87,29.87,29.56,4,1,10,0.54
2013-3-7,48,40,32,45,38,30,95,93,84,30.07,29.87,4,0,10,0.54
2013-3-8,54,38,29,47,35,28,97,88,67,30.22,30.06,6,1,12,0.01
2013-3-9,57,40,29,46,34,27,96,83,53,30.47,30.22,3,0,8,0.01
2013-3-10,49,40,31,41,37,29,96,88,67,30.48,30.40,3,0,9,0.01
2013-3-11,55,45,35,44,40,34,96,83,55,30.42,30.14,5,1,10,0.02
2013-3-12,54,51,46,49,47,43,94,86,74,30.14,30.03,9,3,23,0.38
2013-3-13,52,51,50,49,48,47,94,90,85,30.16,30.06,7,3,22,0.50
2013-3-14,52,50,48,49,47,43,96,89,80,30.12,29.99,6,2,15,0.06
2013-3-15,58,52,48,50,47,45,92,84,70,30.18,30.10,4,2,12,0.01
2013-3-16,51,44,33,46,40,31,95,87,73,30.10,29.86,9,2,25,0.40
2013-3-17,49,40,36,39,36,34,95,86,59,30.17,29.94,4,1,12,0.35
2013-3-18,53,42,33,42,35,31,94,78,48,30.22,30.08,8,2,17,0.17
2013-3-19,56,41,30,40,34,28,96,78,38,30.22,29.59,7,1,18,0.22
2013-3-20,52,44,33,47,40,31,94,87,64,29.98,29.37,11,4,30,1.25
2013-3-21,46,38,33,42,35,30,95,88,75,30.19,29.98,7,1,13,0.49
2013-3-22,48,37,29,37,32,27,95,83,46,30.36,30.19,5,1,9,0.61
2013-3-23,54,38,27,37,30,26,96,76,42,30.38,30.28,3,0,9,0.01
2013-3-24,59,39,26,39,30,25,96,74,33,30.29,30.09,5,0,9,0.01
2013-3-25,65,45,27,40,33,25,95,67,32,30.11,29.91,5,1,11,0.00
2013-3-26,64,47,35,46,38,32,92,72,41,29.99,29.93,5,1,10,0.00
2013-3-27,58,47,38,48,41,36,94,82,60,29.97,29.91,4,0,7,0.00
2013-3-28,65,50,36,52,43,34,96,80,52,30.12,29.96,5,1,8,0.00
2013-3-29,67,50,35,51,43,33,97,79,50,30.22,30.11,5,1,11,0.01
2013-3-30,67,50,33,51,42,-100,96,79,55,30.24,30.05,6,2,12,0.01
2013-3-31,70,53,34,51,43,32,96,72,44,30.05,29.88,6,2,10,0.00
2013-4-1,64,50,36,51,44,34,96,81,60,30.12,29.93,5,1,11,0.00
2013-4-2,54,51,48,48,46,44,91,83,78,30.17,30.12,4,1,11,0.00
2013-4-3,66,53,43,52,46,41,96,78,49,30.16,29.93,4,1,9,0.00
2013-4-4,55,51,46,53,48,44,93,89,83,29.93,29.61,5,1,14,0.26
2013-4-5,59,52,48,50,48,44,94,85,68,29.83,29.70,8,3,20,0.57
2013-4-6,52,48,45,46,43,40,92,84,74,29.88,29.67,6,3,20,0.21
2013-4-7,46,43,39,43,40,37,95,91,85,29.86,29.48,5,1,10,1.13
2013-4-8,54,45,40,47,42,38,95,89,66,30.24,29.86,2,0,7,0.19
2013-4-9,54,48,39,45,42,37,96,81,64,30.32,30.16,4,1,10,0.02
2013-4-10,57,51,46,49,44,40,93,79,65,30.23,29.89,13,4,23,0.10
2013-4-11,58,47,37,44,40,34,94,79,50,30.27,30.17,6,2,13,0.16
2013-4-12,47,40,35,41,37,33,96,90,71,30.17,29.66,9,2,15,0.25
2013-4-13,48,41,35,43,38,33,95,90,80,29.97,29.71,8,1,16,0.28
2013-4-14,58,45,36,44,38,33,95,79,50,29.98,29.89,5,1,11,0.13
2013-4-15,56,44,34,45,39,31,95,83,59,30.16,29.92,8,1,17,0.05
2013-4-16,59,44,31,47,37,30,96,78,40,30.37,30.16,3,1,9,0.05
2013-4-17,62,46,31,43,37,29,96,75,37,30.44,30.37,7,2,15,0.01
2013-4-18,49,46,43,46,42,38,93,85,74,30.43,30.18,3,1,13,0.20
2013-4-19,54,49,47,52,47,45,95,93,90,30.19,30.03,6,2,14,0.59
2013-4-20,56,48,46,49,46,44,95,91,75,30.25,30.16,2,0,8,0.34
2013-4-21,55,47,39,48,43,35,96,87,64,30.33,30.20,6,1,13,0.50
2013-4-22,61,46,31,46,37,30,96,75,42,30.50,30.33,8,2,14,0.01
2013-4-23,64,46,30,43,36,28,100,72,35,30.40,30.22,7,1,14,0.00
2013-4-24,71,52,32,48,38,30,96,66,28,30.31,30.05,7,1,12,0.00
2013-4-25,74,57,35,51,42,33,96,63,35,30.11,30.02,5,1,13,0.00
2013-4-26,70,54,39,55,46,37,96,76,49,30.22,30.11,5,1,11,0.00
2013-4-27,54,51,47,48,44,39,93,79,56,30.19,30.12,7,2,16,0.12
2013-4-28,58,50,45,50,45,41,95,84,66,30.19,29.91,6,1,21,0.38
2013-4-29,52,47,43,45,39,35,91,76,54,30.05,29.89,12,5,23,0.03
2013-5-5,82,69,43,56,52,42,96,57,36,29.95,29.75,7,2,14,0.00
2013-5-6,85,66,44,58,50,42,96,62,31,29.83,29.72,5,1,12,0.00
2013-5-7,75,58,44,58,51,42,96,78,51,29.96,29.79,4,1,10,0.00
2013-5-8,67,55,45,56,50,43,96,84,64,30.12,29.96,2,0,5,0.00
2013-5-9,71,55,43,59,50,41,96,83,51,30.20,30.09,5,1,11,0.00
2013-5-10,77,59,42,62,48,-100,96,75,44,30.18,30.09,5,1,10,0.00
2013-5-11,83,61,48,59,50,-100,95,72,37,30.15,29.96,7,1,17,0.00
2013-5-12,71,62,55,57,55,50,93,78,56,30.06,29.97,6,2,15,0.11
2013-5-13,63,57,46,57,51,40,92,82,61,30.16,29.90,7,2,22,0.14
2013-5-14,67,54,44,48,43,38,90,68,41,30.20,30.09,3,1,9,0.01
2013-5-15,69,53,41,52,45,39,96,78,43,30.10,29.98,4,1,11,0.08
2013-5-16,71,55,51,58,34,-100,95,79,51,30.00,29.84,5,1,14,0.09
2013-5-17,60,55,52,52,45,-100,93,81,69,30.02,29.91,5,1,11,0.09
2013-5-18,62,56,50,50,48,44,87,75,56,30.25,30.02,3,1,12,0.01
2013-5-19,67,55,50,54,49,46,93,81,56,30.37,30.24,4,1,11,0.04
2013-5-20,71,54,39,56,47,37,96,80,51,30.32,29.88,7,1,17,0.01
2013-5-21,55,49,46,52,46,44,98,90,82,29.88,29.75,4,0,9,0.43
2013-5-22,52,47,43,48,44,41,94,91,86,29.91,29.83,2,0,8,0.38
2013-5-23,61,49,43,49,45,41,96,87,59,29.99,29.90,4,0,14,0.14
2013-5-24,63,52,42,50,45,40,96,79,56,30.02,29.95,3,0,7,0.01
2013-5-25,65,55,48,50,47,45,92,75,51,30.02,29.96,4,1,9,0.01
2013-5-26,64,55,48,56,50,45,94,85,66,29.96,29.92,3,1,11,0.10
2013-5-27,61,55,49,56,52,47,95,88,76,29.94,29.69,4,1,12,0.10
2013-5-28,63,56,51,52,50,48,92,81,61,29.85,29.74,5,2,12,0.05
2013-5-29,55,51,49,52,49,47,95,91,83,29.94,29.65,4,0,9,0.52
2013-5-30,63,54,48,50,47,45,95,78,54,30.22,29.94,5,2,12,0.27
2013-5-31,70,57,48,53,48,43,90,72,43,30.31,30.22,5,1,10,0.01
2013-6-1,73,58,45,57,49,43,95,74,44,30.22,30.03,7,1,12,0.00
2013-6-2,71,59,51,55,50,47,93,74,50,30.06,30.01,4,1,12,0.01
2013-6-3,73,59,43,59,51,41,96,77,52,30.09,30.03,5,1,11,0.01
2013-6-4,79,62,45,60,52,43,96,72,43,30.11,29.99,6,2,12,0.00
2013-6-5,77,61,47,60,53,45,98,77,52,30.07,30.01,6,2,12,0.00
2013-6-6,79,62,46,61,52,44,98,72,34,30.03,29.98,5,1,11,0.00
2013-6-7,62,54,50,51,46,43,85,73,54,30.04,29.99,5,0,12,0.00
2013-6-9,53,52,51,45,44,43,77,75,73,30.03,30.02,0,0,6,0.00
2013-6-10,71,57,41,54,47,39,95,72,43,30.02,29.85,6,2,12,0.00
2013-6-11,63,55,49,54,48,45,90,79,58,30.07,29.91,4,1,15,0.28
2013-6-12,67,58,49,51,48,45,92,72,48,30.11,30.07,6,2,11,0.07
2013-6-13,69,57,51,55,50,44,95,79,45,30.19,30.11,6,1,13,0.21
2013-6-14,69,58,50,54,49,46,89,73,53,30.21,30.03,5,1,10,0.00
2013-6-15,74,59,43,58,51,41,96,77,52,30.03,29.89,5,1,11,0.00
2013-6-16,75,61,48,61,54,46,96,81,51,30.06,29.96,6,1,12,0.15
2013-6-17,79,62,49,62,52,47,96,76,36,30.07,29.85,7,1,15,0.15
2013-6-18,74,61,51,54,51,44,96,73,36,29.96,29.84,8,1,16,0.06
2013-6-19,66,58,52,57,52,49,93,82,66,29.98,29.89,3,0,10,0.17
2013-6-20,56,54,52,54,51,50,95,92,79,30.06,29.93,1,0,7,1.17
2013-6-21,66,65,63,55,53,49,72,66,61,30.14,30.10,1,0,5,0.12
2013-6-22,79,70,48,60,56,47,96,63,44,30.06,29.83,4,1,9,0.00
2013-6-23,72,64,56,63,58,53,94,83,63,29.83,29.57,2,0,7,0.04
2013-6-24,66,61,57,61,56,53,95,83,67,29.67,29.55,4,1,15,0.20
2013-6-25,71,60,54,61,56,51,95,85,63,29.83,29.65,7,1,15,0.38
2013-6-26,73,62,53,61,56,51,96,82,59,30.05,29.82,4,0,11,0.21
2013-6-27,71,64,57,63,59,55,95,86,71,30.17,30.02,3,0,7,0.06
2013-6-28,88,71,59,69,62,57,95,77,45,30.16,30.01,5,1,13,0.01
2013-6-29,85,71,60,69,62,56,95,75,52,30.07,29.97,5,1,10,0.00
2013-6-30,89,73,55,70,62,53,96,72,50,29.98,29.83,6,2,11,0.00
2013-7-1,84,70,58,67,61,56,95,74,54,29.98,29.88,6,1,14,0.00
2013-7-2,78,67,55,64,56,49,93,71,45,30.08,29.98,8,2,13,0.00
2013-7-3,76,64,54,59,52,45,83,66,45,30.13,30.02,5,2,14,0.00
2013-7-4,73,62,54,59,53,49,87,73,52,30.09,30.00,5,1,9,0.00
2013-7-5,77,62,49,60,54,46,95,75,47,30.01,29.92,3,0,8,0.00
2013-7-6,79,62,49,62,54,47,96,79,46,29.95,29.84,4,1,12,0.00
2013-7-7,81,66,51,62,56,49,96,72,44,29.91,29.84,5,1,11,0.00
2013-7-8,81,64,54,64,55,-100,95,76,47,30.06,29.91,3,1,11,0.00
2013-7-9,81,67,51,65,57,50,96,73,51,30.08,29.98,6,2,13,0.00
2013-7-10,78,62,54,61,52,-100,88,72,51,30.03,29.94,6,2,15,0.00
2013-7-11,74,60,52,54,49,45,82,69,42,30.05,29.97,6,1,14,0.00
2013-7-12,68,57,45,55,49,42,93,78,57,30.09,29.99,4,0,12,0.00
2013-7-13,77,62,44,57,50,42,96,70,43,30.17,30.08,6,2,15,0.00
2013-7-14,81,63,44,59,50,42,96,68,37,30.11,29.97,6,2,14,0.00
2013-7-15,79,63,46,59,52,44,96,70,40,30.03,29.87,8,2,15,0.00
2013-7-16,85,70,49,61,56,47,95,64,41,29.88,29.77,7,1,13,0.00
2013-7-17,70,65,60,60,57,55,90,76,64,30.16,29.84,5,1,16,0.02
2013-7-18,79,64,54,62,56,51,94,77,52,30.20,30.09,5,1,11,0.01
2013-7-19,80,62,48,63,55,46,96,80,54,30.14,30.01,5,1,13,0.00
2013-7-20,79,61,52,63,54,-100,95,82,52,30.06,29.93,4,1,9,0.00
2013-7-21,81,63,50,64,56,48,96,81,56,29.95,29.87,4,0,7,0.00
2013-7-22,81,64,53,63,57,51,95,79,50,30.03,29.90,3,0,9,0.00
2013-7-23,84,64,49,65,55,47,96,77,43,30.04,29.94,6,1,12,0.00
2013-7-24,83,70,49,61,56,47,96,63,43,30.03,29.97,6,2,13,0.00
2013-7-25,84,70,49,61,56,48,96,63,37,30.08,30.01,5,2,14,0.00
2013-7-26,84,68,47,59,53,45,96,62,36,30.12,30.06,6,2,13,0.00
2013-7-27,80,68,46,59,53,44,96,62,39,30.13,29.96,5,1,11,0.00
2013-7-28,75,64,46,58,54,44,96,71,52,29.99,29.92,4,1,10,0.00
2013-7-29,77,63,56,61,54,51,86,73,49,29.98,29.91,3,0,7,0.01
2013-7-30,81,63,50,63,55,48,96,77,49,30.10,29.97,5,1,8,0.05
2013-7-31,73,61,53,63,57,50,95,86,66,30.09,29.96,3,0,7,0.05
2013-8-1,64,60,56,58,56,53,93,85,77,30.03,30.00,4,1,9,0.01
2013-8-2,61,59,57,57,56,53,95,89,79,30.10,30.03,4,1,8,0.39
2013-8-3,79,65,58,64,59,54,96,82,55,30.10,30.02,5,2,10,0.03
2013-8-4,81,66,53,65,58,51,96,77,51,30.04,29.91,6,1,11,0.01
2013-8-5,84,65,52,63,56,50,96,76,44,29.98,29.90,5,1,10,0.00
2013-8-6,85,72,50,61,56,49,96,61,37,29.98,29.88,5,2,11,0.00
2013-8-7,85,70,50,63,56,48,96,65,39,29.97,29.91,6,1,11,0.00
2013-8-8,82,67,52,63,57,50,96,71,49,30.00,29.92,7,1,13,0.00
2013-8-9,84,67,50,62,56,48,96,70,44,29.93,29.80,5,1,9,0.00
2013-8-10,83,67,60,66,60,56,95,79,54,29.97,29.84,5,1,13,0.08
2013-8-11,77,64,57,62,57,52,94,78,52,30.03,29.95,5,1,10,0.05
2013-8-12,81,65,56,62,56,52,90,75,47,30.04,29.97,6,1,12,0.04
2013-8-13,84,67,53,61,54,-100,95,69,43,30.07,29.90,5,1,10,0.00
2013-8-14,83,64,51,62,52,-100,96,76,43,29.93,29.87,2,0,8,0.01
2013-8-15,69,58,62,65,43,-100,95,84,81,29.96,29.89,3,0,7,0.07
2013-8-16,86,68,61,67,57,-100,96,76,35,29.97,29.91,5,1,12,0.01
2013-8-17,80,66,58,63,56,-100,94,75,54,30.04,29.96,6,1,12,0.00
2013-8-18,79,65,54,60,56,51,95,74,48,30.09,30.04,6,1,15,0.00
2013-8-19,82,62,58,60,45,-100,89,69,47,30.09,30.03,8,1,15,0.00
2013-8-20,77,64,53,61,52,-100,90,69,45,30.14,30.04,6,2,14,0.00
2013-8-21,80,63,46,58,52,44,96,72,45,30.07,29.91,6,2,13,0.00
2013-8-22,86,70,49,61,56,47,96,64,39,29.92,29.76,6,1,8,0.00
2013-8-23,72,65,57,59,56,54,93,75,58,29.86,29.79,4,1,11,0.00
2013-8-24,76,63,53,61,55,-100,93,79,56,29.89,29.83,4,0,11,0.04
2013-8-25,76,59,47,59,53,45,96,83,53,29.92,29.83,4,0,10,0.01
2013-8-26,78,65,57,60,56,52,94,76,47,29.92,29.82,5,1,12,0.01
2013-8-27,79,64,59,62,58,55,92,82,54,29.92,29.84,5,0,9,0.00
2013-8-28,83,73,62,66,62,59,95,69,52,29.85,29.82,2,0,9,0.14
2013-8-29,75,65,62,65,62,59,95,90,66,29.98,29.83,4,1,11,0.55
2013-8-30,80,68,57,63,58,53,92,74,42,30.12,29.98,5,2,11,0.24
2013-8-31,79,63,48,61,54,-100,96,77,52,30.06,29.81,6,1,12,0.00
2013-9-1,83,67,52,65,57,50,96,74,47,29.86,29.76,5,1,12,0.00
2013-9-2,85,67,54,65,58,52,96,74,47,29.92,29.83,5,1,9,0.00
2013-9-3,75,63,56,65,60,54,96,88,66,30.00,29.90,3,0,7,0.23
2013-9-4,68,61,55,62,58,53,96,91,79,30.02,29.97,3,0,8,0.01
2013-9-5,67,60,55,62,58,54,96,91,82,30.02,29.89,5,1,14,0.24
2013-9-6,71,63,59,64,60,58,96,89,69,30.08,29.91,2,0,7,1.51
2013-9-7,75,64,57,65,57,-100,96,83,62,30.08,29.99,5,1,12,0.01
2013-9-8,80,64,55,64,58,53,96,83,57,30.08,29.99,4,1,10,0.01
2013-9-9,79,64,55,64,58,53,96,82,56,30.03,29.95,4,1,11,0.00
2013-9-10,78,63,55,65,58,54,96,85,62,29.97,29.86,5,1,10,0.00
2013-9-11,89,70,52,69,60,51,97,74,44,29.91,29.84,4,1,8,0.00
2013-9-12,79,66,53,64,59,51,96,78,57,29.96,29.87,6,1,11,0.00
2013-9-13,65,60,53,61,58,51,96,92,87,29.94,29.84,2,0,5,0.01
2013-9-14,66,61,59,61,57,-100,95,89,82,29.85,29.71,4,1,8,0.01
2013-9-15,65,61,56,61,59,55,96,92,87,29.78,29.68,3,1,9,0.24
2013-9-16,64,60,55,59,57,53,94,89,82,29.91,29.78,5,1,11,0.30
2013-9-17,61,57,54,55,54,52,96,90,80,29.91,29.84,2,0,6,0.09
2013-9-18,54,53,49,53,51,46,96,94,88,30.04,29.91,0,0,2,0.14
2013-9-19,81,60,42,56,49,41,96,73,32,30.03,29.73,2,0,7,0.01
2013-9-20,78,63,46,58,52,44,95,70,41,29.72,29.55,3,1,14,0.00
2013-9-21,72,61,55,57,52,-100,92,76,52,29.68,29.61,5,1,9,0.01
2013-9-22,61,57,54,54,52,48,92,82,68,29.69,29.54,5,2,15,0.13
2013-9-23,60,55,49,54,51,46,95,87,73,29.94,29.69,4,2,14,0.44
2013-9-24,63,52,47,55,49,46,96,89,70,29.94,29.81,3,0,7,0.08
2013-9-25,57,51,44,51,48,41,95,89,78,30.00,29.83,6,1,13,0.02
2013-9-26,64,49,39,53,45,38,97,87,59,30.11,30.00,4,0,10,0.01
2013-9-27,55,52,41,52,48,39,96,88,81,30.10,29.81,4,1,13,0.05
2013-9-28,60,54,50,57,50,-100,95,90,85,29.82,29.31,9,3,25,0.94
2013-9-29,54,52,51,50,48,47,94,87,78,29.53,29.14,7,4,19,0.51
2013-9-30,57,52,49,50,47,44,90,83,73,29.84,29.36,8,4,21,0.23
2013-10-1,54,51,51,46,46,45,83,80,75,30.08,30.03,5,3,14,0.09
2013-10-2,53,50,47,49,46,45,95,89,81,30.14,30.03,4,1,8,0.24
2013-10-3,62,52,41,51,47,40,99,83,60,30.42,30.14,5,1,10,0.05
2013-10-4,67,49,36,52,44,35,100,83,48,30.46,30.32,2,0,6,0.01
2013-10-5,72,53,39,54,46,37,96,80,50,30.33,30.10,4,1,10,0.01
2013-10-6,78,57,38,54,45,37,100,69,30,30.11,29.85,5,1,15,0.00
2013-10-7,57,52,50,50,49,47,94,89,72,29.99,29.85,6,2,16,0.74
2013-10-8,56,49,39,52,46,36,95,90,69,30.06,29.93,8,1,14,0.36
2013-10-9,59,45,34,49,41,33,97,87,62,30.11,29.93,3,0,7,0.01
2013-10-10,59,49,41,51,45,39,96,87,67,30.04,29.91,4,0,8,0.01
2013-10-11,57,48,41,51,46,40,96,92,79,30.11,30.04,2,0,6,0.00
2013-10-12,58,48,39,51,44,-100,96,89,73,30.19,30.04,7,1,14,0.06
2013-10-13,56,45,37,49,42,35,96,90,74,30.34,30.19,2,0,6,0.01
2013-10-14,60,44,37,50,40,35,97,89,65,30.40,30.33,4,0,8,0.00
2013-10-15,62,46,35,51,42,34,97,86,63,30.37,30.15,3,0,7,0.00
2013-10-16,53,48,39,49,45,37,96,92,84,30.18,30.12,3,0,6,0.00
2013-10-17,58,49,40,50,45,38,95,88,75,30.25,30.18,3,0,6,0.00
2013-10-18,59,45,39,53,43,37,97,91,74,30.23,30.12,5,1,8,0.00
2013-10-19,49,45,42,47,42,-100,96,93,91,30.17,30.12,2,0,7,0.01
2013-10-20,49,46,44,47,44,43,96,94,90,30.18,30.13,2,0,5,0.01
2013-10-21,50,47,44,49,45,43,96,95,91,30.15,30.07,3,0,5,0.00
2013-10-22,50,47,44,48,45,43,96,95,92,30.10,30.01,2,0,5,0.00
2013-10-23,60,47,40,53,45,39,100,92,74,30.03,29.96,3,0,6,0.01
2013-10-24,49,45,40,48,44,39,97,96,93,30.06,29.99,4,0,8,0.00
2013-10-25,51,48,45,48,46,43,96,93,88,30.29,30.16,3,0,6,0.03
2013-10-26,52,48,46,47,44,-100,96,90,83,30.31,30.16,5,0,7,0.01
2013-10-27,57,47,38,51,45,36,96,90,73,30.16,29.86,5,1,15,0.25
2013-10-28,61,44,33,49,36,-100,97,81,46,29.93,29.85,7,1,14,0.01
2013-10-29,60,40,28,43,34,27,96,83,47,30.01,29.93,3,0,6,0.00
2013-10-30,55,42,30,46,38,28,96,85,65,30.11,30.00,4,0,10,0.01
2013-10-31,52,49,47,50,46,43,96,90,78,30.23,30.07,4,0,14,0.15
2013-11-1,58,52,46,53,49,45,97,91,80,30.24,29.81,3,0,5,0.01
2013-11-2,52,46,42,50,43,-100,95,91,80,29.86,29.44,12,2,34,0.99
2013-11-3,51,40,33,46,38,31,97,92,70,30.09,29.86,2,0,6,0.14
2013-11-4,50,38,27,42,34,26,96,87,65,30.18,30.05,2,0,5,0.07
2013-11-5,50,44,40,48,42,37,96,93,89,30.23,30.00,2,0,7,0.19
2013-11-6,51,44,39,48,42,38,97,93,83,30.29,30.02,4,0,12,0.02
2013-11-7,49,47,45,47,45,43,95,92,85,30.00,29.70,8,2,27,0.75
2013-11-8,55,47,40,47,44,38,95,88,70,30.13,29.95,4,0,11,0.01
2013-11-9,50,42,32,46,38,-100,97,90,80,30.13,30.04,2,0,6,0.05
2013-11-10,48,45,43,46,43,42,96,95,91,30.13,30.07,2,1,6,0.13
2013-11-11,58,48,38,51,43,37,97,86,60,30.13,29.97,3,0,8,0.01
2013-11-12,57,52,45,54,48,41,96,87,76,30.32,30.00,5,1,10,0.11
2013-11-13,57,51,47,50,47,45,94,87,73,30.40,30.29,3,1,12,0.04
2013-11-14,49,46,41,47,44,39,96,94,89,30.28,30.03,6,0,11,0.13
2013-11-15,45,44,42,43,42,39,96,93,81,30.04,29.31,6,2,14,0.37
2013-11-16,46,41,38,41,37,-100,95,87,79,29.73,29.32,12,1,20,0.09
2013-11-17,52,46,36,46,42,34,95,86,78,29.86,29.73,7,2,23,0.01
2013-11-18,50,48,47,49,46,44,95,92,88,29.86,29.52,5,2,16,0.36
2013-11-19,51,42,37,50,37,25,95,81,58,30.03,29.50,9,2,16,0.36
2013-11-20,45,32,24,34,27,22,96,83,57,30.48,30.05,4,1,11,0.01
2013-11-21,44,27,19,33,24,17,96,87,59,30.65,30.49,2,0,7,0.00
2013-11-22,46,30,21,36,26,19,96,86,61,30.64,30.45,4,0,8,0.01
2013-11-23,51,34,24,38,29,-100,96,87,62,30.43,30.19,4,0,10,0.01
2013-11-24,51,35,25,40,31,24,96,87,65,30.24,30.16,2,0,5,0.01
2013-11-25,57,37,28,42,32,27,100,85,53,30.29,30.23,1,0,4,0.01
2013-11-26,57,39,26,42,34,25,96,85,51,30.25,30.08,1,0,6,0.02
2013-11-27,55,41,31,44,37,29,95,87,65,30.08,29.93,2,0,5,0.01
2013-12-3,41,31,23,33,27,21,96,86,59,30.29,30.03,4,1,8,0.04
2013-12-4,39,26,19,32,23,17,95,88,63,30.33,30.28,1,0,4,0.01
2013-12-5,31,24,16,26,19,12,95,84,57,30.31,30.18,2,0,8,0.01
2013-12-6,34,24,14,20,11,7,88,60,38,30.23,30.14,3,1,12,0.00
2013-12-7,33,15,9,18,7,-100,92,76,41,30.41,30.23,3,0,7,0.00
2013-12-8,35,20,9,21,14,6,91,78,45,30.55,30.41,2,0,5,0.00
2013-12-9,30,24,12,26,20,9,92,85,73,30.56,30.47,1,0,4,0.00
2013-12-10,36,32,29,31,29,26,93,88,81,30.47,30.39,1,0,4,0.00
2013-12-11,42,30,23,34,28,21,96,89,71,30.40,30.14,1,0,3,0.00
2013-12-12,44,36,27,39,32,25,95,88,66,30.14,30.02,5,1,11,0.05
2013-12-13,45,42,40,44,41,38,96,95,94,30.39,30.10,2,0,7,0.06
2013-12-14,48,43,38,43,40,-100,96,90,83,30.40,30.30,4,1,10,0.01
2013-12-15,48,46,42,46,44,41,96,92,82,30.42,30.29,3,1,8,0.02
2013-12-16,50,40,33,47,38,32,97,93,81,30.47,30.25,1,0,4,0.01
2013-12-17,40,36,32,39,36,31,97,96,95,30.25,30.09,2,0,7,0.01
2013-12-18,45,38,26,40,35,24,97,90,71,30.12,30.00,5,1,12,0.01
2013-12-19,37,28,20,34,26,18,96,92,83,30.33,30.11,1,0,4,0.01
2013-12-20,36,32,28,35,31,27,96,95,93,30.19,29.70,5,1,11,0.60
2013-12-21,39,36,33,38,34,-100,97,95,96,30.14,29.82,2,0,4,0.32
2013-12-22,47,42,37,46,41,36,97,97,96,30.27,30.14,5,0,11,0.52
2013-12-27,42,36,29,41,35,28,97,96,95,30.34,30.08,6,0,12,0.08
2013-12-28,47,39,33,46,36,-100,97,94,90,30.50,30.34,2,0,4,0.03
2013-12-29,40,38,36,39,37,35,97,96,95,30.46,30.29,2,0,5,0.01
2013-12-30,42,38,34,41,37,33,97,96,94,30.29,30.09,5,0,11,0.03
2013-12-31,46,42,37,44,41,36,96,94,90,30.35,30.17,2,0,7,0.04
2014-1-1,44,38,31,41,36,30,97,95,89,30.38,30.22,2,0,5,0.00
2014-1-2,50,43,38,44,41,37,97,91,72,30.21,29.87,6,2,16,0.51